Regional Weather Roundup
Issued by NWS

Home | Current Version | Previous Version | Graphics & Text | Print | Product List | Glossary On
Versions: 1 2 3 4 5 6 7 8 9 10 11 12 13 14 15 16 17 18 19 20 21 22 23 24 25 26 27 28 29 30 31 32 33 34 35 36 37 38 39 40 41 42 43 44 45 46 47 48 49 50
000
ASUS43 KFSD 242010
RWRSD

WEATHER ROUNDUP FOR SOUTH DAKOTA
NATIONAL WEATHER SERVICE SIOUX FALLS SD
300 PM CDT FRI APR 24 2015

NOTE: "FAIR" INDICATES FEW OR NO CLOUDS BELOW 12,000 FEET WITH NO
SIGNIFICANT WEATHER AND/OR OBSTRUCTIONS TO VISIBILITY.


SDZ001>005-009-010-012>017-242100-
NORTHWEST AND NORTH CENTRAL SOUTH DAKOTA

CITY           SKY/WX    TMP DP  RH WIND       PRES   REMARKS
BUFFALO          N/A     69  33  26 NE12      29.54F
FAITH            N/A     68  33  27 NE14G28   29.57S
MOBRIDGE       MOSUNNY   69  43  38 NE13      29.55F
$$

SDZ012>016-024>037-041>051-057-063-072>074-242100-
SOUTHWEST AND SOUTH CENTRAL SOUTH DAKOTA

CITY           SKY/WX    TMP DP  RH WIND       PRES   REMARKS
RAPID CTY ARPT CLOUDY    67  40  37 NE6       29.58F
PIERRE         SUNNY     74  46  36 NE14      29.51F
CUSTER         RAIN      43  39  86 NW7       29.69S FOG
ELLSWORTH AFB  CLOUDY    66  40  37 NE7       29.58F
PHILIP         SUNNY     75  44  33 NE9       29.52F
PINE RIDGE     MOSUNNY   70  41  34 CALM      29.56F
SPEARFISH      FAIR      63  41  45 SE12G18   29.63S
WINNER         FAIR      76  42  29 SW5       29.50F
$$

SDZ004>011-016>023-039-040-242100-
NORTHEAST SOUTH DAKOTA

CITY           SKY/WX    TMP DP  RH WIND       PRES   REMARKS
ABERDEEN       CLOUDY    67  45  45 SE8       29.57R
WATERTOWN      MOSUNNY   67  45  45 SE14      29.59F
BROOKINGS      PTSUNNY   66  48  52 SE16      29.60F
SISSETON         N/A     58  47  66 SE18      29.63F
$$

SDZ017-020-022-023-036>040-048>070-242100-
SOUTHEAST SOUTH DAKOTA

CITY           SKY/WX    TMP DP  RH WIND       PRES   REMARKS
SIOUX FALLS    CLOUDY    68  50  52 SE13      29.58F
HURON          MOSUNNY   74  48  39 SE13      29.51F
CHAMBERLAIN    SUNNY     75  44  32 N5        29.48F
MITCHELL       MOSUNNY   75  48  38 S10       29.52F
YANKTON        MOSUNNY   75  50  41 S12G20    29.53F
$$

ABBREVIATIONS USED IN REMARKS
   TC - TEMPERATURE IN CELSIUS
  WCI - WIND CHILL INDEX
   HX - HEAT INDEX
  VSB - VISIBILITY




USA.gov is the U.S. government's official web portal to all federal, state and local government web resources and services.